DELTA 1 DEB, 10659

Orbit data source: Space-Track

DELTA 1 DEB, 10659 is space debris in SSO originally from a launch on Thu, 29 Jul 1976 UTC launched from the Air Force Western Test Range (AFWTR). Debris objects in space refer to the collection of defunct objects orbiting the Earth. Examples of debris include non-operational satellites, rocket bodies, and fragments generated from explosions, collisions, or faulty payload assembly.

Loading next visibility...
Identifier
10659, 1976-077V
Orbit
SSO
Country
Flag of USUS
Related business
Manufacturer
Unknown
Mission
Spacecraft
Bus & Motor
Unknown
Mass
Unknown
Launch date (UTC)
1976-07-29 (50 years ago)
Launch vehicle
Unknown
Launch site
Air Force Western Test Range (AFWTR)
Object type
Payload
Rocket body
Debris
Shape & HBR
Unknown shape, 0.3 m
Radar Cross Section
Medium (>0.1 m² and <1 m²)

Expand to show TLE details & history
Last TLE update: 2 days ago

TLE from 2 days ago
0 DELTA 1 DEB
1 10659U 76077V   26171.27698999  .00000212  00000-0  26659-2 0  9999
2 10659 102.1984 107.6152 0176366  74.8690  80.6908 12.09414890203007
Epoch: 2026-06-20T06:38Z
TLE epoch observation values (Epoch: 2026-06-20T06:38:51.935Z)
Latitude
21.92037°
Longitude
-75.62866°
Altitude
1,620.848 km
Speed
7.071 km/s
True Right ascension
19h 30m 19s
True Declination
21° 48' 52"
Sunlit
Object was in full shadow at epoch
Visualization orbit readout
Latitude
Unknown
Longitude
Unknown
Altitude
Unknown
Speed
Unknown
Apparent Right ascension
Unknown
Apparent Declination
Unknown
Sunlit
N/A
Visualization observer readout
Local Sidereal Time
00:54:27
Azimuth
Unknown
Elevation
Unknown
Doppler factor
Unknown
Orbital elements
Apogee altitude
1,777.96 km
Perigee altitude
1,495.254 km
Semi-major axis
8,014.744 km
Eccentricity
0.01764
Inclination
102.1984°
RAAN
107.6152°
Arg. of periapsis
74.869°
True anomaly
82.69192°
Mean anomaly
80.6908°
Eccentric anomaly
81.69069°
Mean motion
3.02488 °/min
Orbital period
119.01 mins
BSTAR
0.0026659
Loading maneuver chart data...
Computing Atmospheric mass density...
Loading historical data...
Loading historical data...
Loading historical data...
Loading historical data...
Loading historical data...
Loading historical data...
Loading historical data...

Documentation

Showing up to 5 results
|